This demonstration page uses our WeatherBlox Daily Observations layout. Learn more.

Left ArrowRight Arrow

Hourly Observations for December 9, 2015

Temp ( °F °C ) Dew Point ( °F °C ) Humidity (%) Winds ( mph kmh ) Pressure ( in mb ) Visibility ( mi km ) Precip ( " mm )
12:03 am 00:03 Cloudy with Mist and Fog 54 12 50 10 88 88 S 7 11 30.15 1021 3 4 0.00 0.00
12:33 am 00:33 Cloudy with Mist and Fog 53 11.7 50 10 89 89 S 7 11 30.15 1021 3 5 0.00 0.00
12:53 am 00:53 Cloudy with Mist and Fog 53 11.7 50 10 89 89 SSW 6 9 30.14 1021 3 5 0.00 0.00
1:53 am 01:53 Cloudy with Mist and Fog 53 11.7 50 10 89 89 S 7 11 30.12 1020 6 10 0.00 0.00
2:03 am 02:03 Cloudy with Mist and Fog 54 12 50 10 88 88 SSE 8 13 30.12 1020 5 8 0.00 0.00
2:13 am 02:13 Cloudy with Mist and Fog 53 11.7 50 10 89 89 SSE 8 13 30.12 1020 5 8 0.00 0.00
2:35 am 02:35 Cloudy 53 11.7 50 10 89 89 S 7 11 30.12 1020 7 11 0.00 0.00
2:53 am 02:53 Cloudy with Mist and Fog 53 11.7 50 10 89 89 SSW 6 9 30.10 1019 4 6 0.00 0.00
3:29 am 03:29 Cloudy with Mist and Fog 52 11.1 50 10 93 93 SSW 6 9 30.09 1019 3 5 0.00 0.00
3:46 am 03:46 Cloudy with Mist and Fog 53 11.7 50 10 89 89 SSW 10 17 30.09 1019 5 8 0.00 0.00
3:53 am 03:53 Cloudy with Mist and Fog 53 11.7 50 10 89 89 SSW 9 15 30.09 1019 4 6 0.00 0.00
4:08 am 04:08 Cloudy with Mist and Fog 52 11 48 9 88 88 SW 9 15 30.09 1019 3 4 0.00 0.00
4:28 am 04:28 Cloudy with Mist and Fog 52 11 48 9 88 88 SW 7 11 30.09 1019 3 4 0.00 0.00
4:42 am 04:42 Cloudy with Mist and Fog 52 11 48 9 88 88 SSW 7 11 30.09 1019 2 3 0.00 0.00
4:53 am 04:53 Cloudy with Mist and Fog 52 11.1 49 9.4 89 89 S 9 15 30.06 1018 3 5 0.00 0.00
5:03 am 05:03 Cloudy with Mist and Fog 52 11 48 9 88 88 S 10 17 30.06 1018 3 4 0.00 0.00
5:13 am 05:13 Cloudy with Mist and Fog 52 11.1 49 9.4 89 89 S 10 17 30.06 1018 3 5 0.00 0.00
5:20 am 05:20 Cloudy with Mist and Fog 52 11 48 9 88 88 S 8 13 30.06 1018 3 5 0.00 0.00
5:31 am 05:31 Cloudy with Mist and Fog 52 11.1 49 9.4 89 89 S 10 17 30.03 1017 4 6 0.00 0.00
5:49 am 05:49 Cloudy with Mist and Fog 52 11 48 9 88 88 SSW 8 13 30.03 1017 3 5 0.00 0.00
5:53 am 05:53 Cloudy with Mist and Fog 52 11.1 49 9.4 89 89 SSW 8 13 30.03 1017 3 5 0.00 0.00
6:14 am 06:14 Cloudy with Light Rain 52 11 48 9 88 88 SSW 13 20 30.03 1017 2 3 0.00 0.00
6:23 am 06:23 Cloudy with Light Rain 52 11.1 49 9.4 89 89 SSW 14 22 30.03 1017 3 4 0.00 0.03
6:30 am 06:30 Cloudy with Mist and Fog 52 11 48 9 88 88 SSW 10 17 30.03 1017 3 5 0.00 0.00
6:53 am 06:53 Cloudy with Mist and Fog 52 11.1 49 9.4 89 89 SW 10 17 30.04 1017 3 5 0.00 0.03
7:53 am 07:53 Cloudy with Light Rain 52 11.1 49 9.4 89 89 SW 10 17 30.03 1017 3 5 0.04 1.02
8:14 am 08:14 Cloudy with Rain 52 11 48 9 88 88 W 10 17 30.06 1018 2 3 0.00 0.00
8:24 am 08:24 Cloudy with Heavy Rain 52 11 48 9 88 88 W 13 20 30.09 1019 1 2 0.00 0.00
8:32 am 08:32 Cloudy with Rain 52 11 48 9 88 88 WNW 10 17 30.09 1019 2 2 0.00 0.00
8:45 am 08:45 Cloudy with Light Rain 52 11.1 49 9.4 89 89 W 12 19 30.09 1019 3 5 0.17 4.32
8:53 am 08:53 Cloudy with Rain 53 11.7 49 9.4 86 86 WSW 8 13 30.10 1019 2 3 0.18 4.57
9:00 am 09:00 Cloudy with Rain 52 11 48 9 88 88 SW 7 11 30.09 1019 2 3 0.00 0.00
9:15 am 09:15 Cloudy with Light Rain 53 11.7 49 9.4 86 86 S 15 24 30.06 1018 5 8 0.05 1.27
9:53 am 09:53 Cloudy 53 11.7 50 10 89 89 W 5 7 30.09 1019 10 16 0.09 2.29
10:31 am 10:31 Cloudy 54 12.2 51 10.6 90 90 Calm 30.09 1019 10 16 0.00 0.00
10:48 am 10:48 Cloudy 54 12 50 10 88 88 N 3 6 30.09 1019 10 16 0.00 0.00
10:53 am 10:53 Cloudy 54 12.2 50 10 87 87 N 3 6 30.09 1019 10 16 0.00 0.00
11:19 am 11:19 Cloudy 54 12.2 50 10 87 87 NW 3 6 30.09 1019 10 16 0.00 0.00
11:53 am 11:53 Cloudy 54 12.2 51 10.6 90 90 NW 3 6 30.06 1018 10 16 0.00 0.00
12:39 pm 12:39 Cloudy with Light Rain 54 12.2 51 10.6 90 90 NW 5 7 30.06 1018 2 3 0.00 0.03
12:53 pm 12:53 Cloudy with Light Rain 54 12.2 50 10 87 87 Calm 30.06 1018 2 3 0.01 0.25
1:53 pm 13:53 Cloudy with Light Rain 55 12.8 51 10.6 87 87 W 5 7 30.06 1018 2 3 0.03 0.76
2:00 pm 14:00 Cloudy with Light Rain 55 13 52 11 88 88 W 3 6 30.06 1018 10 16 0.00 0.00
2:45 pm 14:45 Cloudy with Mist and Fog 55 12.8 51 10.6 87 87 Calm 30.03 1017 3 4 0.01 0.25
2:53 pm 14:53 Cloudy with Light Rain 55 12.8 51 10.6 87 87 Calm 30.03 1017 1 2 0.01 0.25
2:58 pm 14:58 Cloudy with Mist and Fog 55 13 52 11 88 88 Calm 30.03 1017 2 2 0.00 0.00
3:11 pm 15:11 Cloudy with Light Rain 55 12.8 51 10.6 87 87 Calm 30.06 1018 1 2 0.01 0.25
3:38 pm 15:38 Cloudy with Light Rain 54 12 52 11 94 94 N 3 6 30.03 1017 2 2 0.00 0.00
3:53 pm 15:53 Cloudy with Light Rain 54 12.2 51 10.6 90 90 NNE 3 6 30.03 1017 1 2 0.03 0.76
4:12 pm 16:12 Cloudy with Light Rain 54 12 52 11 94 94 Calm 30.03 1017 1 2 0.00 0.00
4:43 pm 16:43 Cloudy with Light Rain 54 12.2 51 10.6 90 90 NNE 3 6 30.00 1016 2 3 0.04 1.02
4:53 pm 16:53 Cloudy with Light Rain 54 12.2 51 10.6 90 90 NE 3 6 30.01 1016 2 2 0.04 1.02
5:53 pm 17:53 Cloudy with Mist and Fog 54 12.2 51 10.6 90 90 Calm 30.00 1016 2 2 0.04 1.02
6:07 pm 18:07 Cloudy with Light Rain 54 12.2 51 10.6 90 90 Calm 30.00 1016 2 2 0.00 0.03
6:32 pm 18:32 Cloudy with Mist and Fog 54 12 52 11 94 94 NE 6 9 29.97 1015 2 2 0.00 0.00
6:53 pm 18:53 Cloudy with Light Rain 54 12.2 51 10.6 90 90 Calm 29.97 1015 3 4 0.02 0.51
7:13 pm 19:13 Cloudy with Light Rain 54 12.2 51 10.6 90 90 Calm 29.97 1015 3 4 0.02 0.51
7:34 pm 19:34 Cloudy with Mist and Fog 54 12 52 11 94 94 NNE 5 7 29.94 1014 2 3 0.00 0.00
7:53 pm 19:53 Cloudy with Light Rain 54 12.2 51 10.6 90 90 N 5 7 29.94 1014 3 4 0.03 0.76
8:13 pm 20:13 Cloudy with Light Rain 54 12.2 51 10.6 90 90 VRB 3 6 29.94 1014 3 4 0.03 0.76
8:22 pm 20:22 Cloudy with Light Rain 54 12 52 11 94 94 Calm 29.94 1014 3 5 0.00 0.00
8:38 pm 20:38 Cloudy with Light Rain 54 12 52 11 94 94 Calm 29.94 1014 2 3 0.00 0.00
8:46 pm 20:46 Cloudy with Light Rain 54 12 52 11 94 94 Calm 29.91 1013 2 3 0.00 0.00
8:53 pm 20:53 Cloudy with Rain 54 12.2 51 10.6 90 90 Calm 29.87 1012 2 2 0.06 1.52
9:07 pm 21:07 Cloudy with Light Rain 54 12.2 51 10.6 90 90 Calm 29.91 1013 2 3 0.03 0.76
9:23 pm 21:23 Cloudy with Rain 54 12.2 51 10.6 90 90 WSW 3 6 29.88 1012 3 5 0.06 1.52
9:42 pm 21:42 Cloudy with Heavy Rain 55 13 52 11 88 88 SW 7 11 29.83 1010 2 3 0.00 0.00
9:50 pm 21:50 Cloudy with Light Rain 55 13 54 12 94 94 S 12 19 29.80 1009 3 5 0.00 0.00
9:53 pm 21:53 Cloudy with Light Rain 57 13.9 53 11.7 87 87 S 14 22 29.79 1009 4 6 0.17 4.32
10:26 pm 22:26 Cloudy with Rain 55 13 52 11 88 88 SSW 14 22 29.80 1009 2 3 0.00 0.00
10:48 pm 22:48 Cloudy with Light Rain 57 14 54 12 88 88 S 16 26 29.77 1008 4 6 0.00 0.00
10:53 pm 22:53 Cloudy with Heavy Rain 57 13.9 54 12.2 90 90 SSW 15 24 29.75 1007 3 5 0.15 3.81
11:53 pm 23:53 Cloudy with Light Rain 58 14.4 54 12.2 87 87 S 26 43 29.67 1005 7 11 0.08 2.03

Powered by AerisWeather